[[{"header":{"parameterUnit":"m.s-1","parameterCategory":1,"la1":30.2991,"la2":30.254,"lo1":-89.0895,"lo2":-89.0444,"dy":0.0017,"dx":0.0017,"nx":28,"ny":28,"refTime":"2025-12-29T09:00:00:Z","depth":0,"parameterNumber":2,"parameterNumberName":"U-component_of_WINDS"},"data":[0,0,0,0,0,0,0,0,0,0,0,0,0,0,0,0,0,0,0,0,0,0,0,0,0,0,0,0,0,0,0,0,0,0,0,0,0,0,0,0,0,0,0,0,0,0,0,0,0,0,0,0,0,0,0,0,0,0,1.7607,1.7607,0,1.7635,1.7635,1.7635,1.7634,1.7634,1.7634,1.7633,1.766,1.7662,1.7663,0,0,0,0,0,0,0,0,0,0,0,0,0,1.7554,1.7555,1.7607,1.7607,1.7608,1.7635,1.7635,1.7635,1.7634,1.7634,1.7633,1.7633,1.766,1.7661,1.7663,0,0,0,0,0,0,0,0,0,0,0,0,0,1.7579,1.7555,1.7607,1.7611,1.7611,1.7635,1.7635,1.7635,1.7634,1.7634,1.7633,1.7633,1.766,1.7661,1.7663,1.7684,0,0,1.7668,1.7669,0,0,0,0,0,0,0,0,1.7577,1.7581,1.761,1.761,1.7611,1.763,1.7626,1.7652,1.7635,1.7626,1.7633,1.7633,1.7651,1.7653,1.766,1.7686,1.7687,1.7668,1.7669,1.767,1.767,0,0,0,0,0,0,0,1.7576,1.7579,1.7618,1.761,1.7611,1.7611,1.7614,1.7631,1.7641,1.7626,1.7626,1.763,1.7651,1.7658,1.766,1.7687,1.7668,1.7669,1.767,1.7671,1.7733,1.7734,0,0,0,0,0,0,1.7573,1.7578,1.7617,1.7619,1.7592,1.7612,1.7615,1.7625,1.7641,1.7643,1.763,1.763,1.7656,1.7658,1.7661,1.7688,1.767,1.7671,1.7672,1.7733,1.7734,1.7734,0,0,0,0,0,0,1.7572,1.7577,1.7616,1.7598,1.7603,1.7614,1.7624,1.7626,1.7632,1.7644,1.7645,1.7635,1.7655,1.7659,1.7679,1.7689,1.7672,1.7673,1.7732,1.7733,1.7734,1.7741,0,0,0,0,0,0,1.757,1.7576,1.7584,1.7599,1.7604,1.7633,1.7625,1.7627,1.7635,1.7635,1.7649,1.7651,1.7655,1.7677,1.7681,1.7691,1.7675,1.7731,1.7732,1.7734,1.774,1.7742,1.7744,0,0,0,0,0,1.7569,1.7585,1.7585,1.7589,1.7615,1.7634,1.7637,1.7642,1.7636,1.7644,1.7652,1.765,1.7687,1.7679,1.7683,1.7694,1.773,1.7732,1.7734,1.7739,1.7742,1.7744,0,0,0,0,0,0,1.757,1.7586,1.7587,1.7608,1.7619,1.7633,1.7644,1.7644,1.7657,1.7656,1.7661,1.7665,1.7685,1.7691,1.7681,1.7716,1.7708,1.7711,1.7711,1.7713,1.7715,1.7713,1.7676,0,0,0,0,0,1.7573,1.7587,1.7601,1.7618,1.7624,1.7633,1.7642,1.7644,1.7656,1.7661,1.767,1.7682,1.7696,1.7705,1.7719,1.7741,1.7745,1.7751,1.7753,1.7755,1.7757,1.777,1.7773,1.7739,1.7739,1.7739,0,0,1.7579,1.759,1.7598,1.7619,1.7628,1.7643,1.7637,1.7652,1.7663,1.7663,1.7683,1.769,1.7704,1.7725,1.7735,1.7731,1.7767,1.7757,1.7758,1.7759,1.7771,1.7775,1.7777,1.774,1.774,1.774,0,0,1.7597,1.7607,1.7623,1.7633,1.7647,1.7653,1.7657,1.7672,1.7677,1.7697,1.7697,1.7711,1.7735,1.7745,1.7753,1.7777,1.7776,1.7782,1.7792,1.7805,1.7807,1.781,1.7818,1.7821,1.7784,1.7784,1.7784,0,1.7603,1.7625,1.7631,1.7647,1.7656,1.7658,1.7674,1.7683,1.7702,1.7708,1.7704,1.7736,1.7745,1.7769,1.7775,1.7782,1.7786,1.7779,1.7806,1.7809,1.7811,1.7819,1.7823,1.7784,1.7784,1.7784,1.7784,0,1.7631,1.7646,1.7657,1.7676,1.7686,1.7702,1.7711,1.7721,1.7724,1.7731,1.7752,1.7763,1.778,1.7786,1.7788,1.7811,1.7808,1.7805,1.7797,1.7815,1.7823,1.7826,1.7785,1.7785,1.7785,1.7784,0,0,1.7649,1.7672,1.7676,1.7684,1.7702,1.7714,1.773,1.7747,1.7756,1.7769,1.7783,1.7805,1.7803,1.7812,1.7816,1.7827,1.7846,1.7823,1.7824,1.7827,1.7872,1.7874,1.7877,1.7846,1.7847,1.7848,1.7871,0,1.7669,1.7698,1.7705,1.773,1.7745,1.7748,1.7763,1.7775,1.7782,1.7796,1.7804,1.7819,1.7816,1.7821,1.7833,1.7841,1.7855,1.784,1.7859,1.786,1.7855,1.7881,1.7883,1.7904,1.7874,1.7875,1.7875,0,1.7695,1.7709,1.7736,1.7753,1.7759,1.7772,1.7789,1.7802,1.7817,1.7821,1.7833,1.7836,1.7854,1.7846,1.7871,1.7861,1.7869,1.7875,1.7876,1.7877,1.7868,1.7883,1.7911,1.7914,1.788,1.788,1.7879,0,1.7705,1.7732,1.7751,1.7759,1.7779,1.7788,1.7796,1.7811,1.7821,1.7835,1.7842,1.7859,1.7868,1.7881,1.7888,1.7882,1.7913,1.7905,1.7917,1.7917,1.7922,1.7922,1.7952,1.7929,1.7929,1.7929,1.7929,0,1.7726,1.7742,1.7757,1.7769,1.7787,1.7796,1.7814,1.7823,1.7836,1.785,1.7854,1.7867,1.7877,1.7891,1.7898,1.7918,1.7922,1.7926,1.7927,1.7925,1.7924,1.793,1.7928,1.793,1.793,1.793,1.7929,0,1.774,1.775,1.7772,1.779,1.7794,1.7807,1.7822,1.7835,1.7843,1.7861,1.7866,1.7878,1.7896,1.7906,1.7927,1.7932,1.7954,1.7955,1.7949,1.7949,1.796,1.7959,1.7995,1.8,1.7974,1.7974,1.7975,0,1.7752,1.7765,1.7784,1.7794,1.7803,1.7819,1.783,1.7839,1.785,1.7869,1.7879,1.7897,1.7912,1.794,1.7951,1.7968,1.7969,1.7981,1.7972,1.797,1.7969,1.7968,1.7969,1.7982,1.7982,1.7982,1.7982,0,1.7772,1.7777,1.7793,1.781,1.7823,1.7837,1.7851,1.7859,1.7871,1.7884,1.7902,1.7914,1.7937,1.7955,1.7973,1.7982,1.7984,1.7985,1.7989,1.7986,1.7982,1.7985,1.7953,1.7984,1.7984,1.7984,1.7984,1.7984,1.7786,1.7798,1.7813,1.7831,1.7843,1.7856,1.7869,1.7879,1.7895,1.7914,1.7919,1.7939,1.7955,1.798,1.799,1.8005,1.8003,1.8008,1.8009,1.801,1.801,1.7981,1.8009,1.8009,1.8009,1.8009,1.8008,0,1.7806,1.7817,1.7833,1.7853,1.7867,1.7869,1.7885,1.7896,1.7913,1.7928,1.7943,1.7965,1.7983,1.7997,1.8015,1.8025,1.8027,1.803,1.8028,1.8031,1.8011,1.8006,1.8028,1.8028,1.8028,1.8028,1.8028,1.8028,1.7818,1.7838,1.7846,1.7872,1.7883,1.7903,1.7912,1.7924,1.7936,1.796,1.7976,1.7985,1.7999,1.8019,1.8036,1.804,1.8046,1.8049,1.8052,1.8034,1.8032,1.803,1.8025,1.805,1.805,1.807,1.807,1.8071]},{"header":{"parameterUnit":"m.s-1","parameterCategory":1,"la1":30.2991,"la2":30.254,"lo1":-89.0895,"lo2":-89.0444,"dy":0.0017,"dx":0.0017,"nx":28,"ny":28,"refTime":"2025-12-29T09:00:00:Z","depth":0,"parameterNumber":3,"parameterNumberName":"V-component_of_WINDS"},"data":[0,0,0,0,0,0,0,0,0,0,0,0,0,0,0,0,0,0,0,0,0,0,0,0,0,0,0,0,0,0,0,0,0,0,0,0,0,0,0,0,0,0,0,0,0,0,0,0,0,0,0,0,0,0,0,0,0,0,-7.3893,-7.3895,0,-7.4062,-7.4064,-7.4066,-7.3997,-7.3993,-7.3989,-7.3985,-7.4153,-7.4161,-7.4169,0,0,0,0,0,0,0,0,0,0,0,0,0,-7.3506,-7.3513,-7.3893,-7.3895,-7.3897,-7.4062,-7.4064,-7.4067,-7.3997,-7.3993,-7.3988,-7.3983,-7.415,-7.416,-7.417,0,0,0,0,0,0,0,0,0,0,0,0,0,-7.3674,-7.3516,-7.3893,-7.3883,-7.3884,-7.4062,-7.4064,-7.4067,-7.3998,-7.3992,-7.3986,-7.3981,-7.4147,-7.4159,-7.4171,-7.4368,0,0,-7.4209,-7.4214,0,0,0,0,0,0,0,0,-7.3665,-7.3688,-7.3882,-7.3884,-7.3885,-7.4002,-7.3989,-7.4168,-7.4,-7.3955,-7.3985,-7.3978,-7.4108,-7.4123,-7.4167,-7.4376,-7.4383,-7.421,-7.4218,-7.4223,-7.4226,0,0,0,0,0,0,0,-7.3653,-7.3681,-7.396,-7.3885,-7.3887,-7.3868,-7.3886,-7.4023,-7.4063,-7.3958,-7.3954,-7.3975,-7.4107,-7.4156,-7.4171,-7.4385,-7.421,-7.4221,-7.4228,-7.4233,-7.4763,-7.4769,0,0,0,0,0,0,-7.3642,-7.3671,-7.3954,-7.3965,-7.3758,-7.388,-7.39,-7.3971,-7.4061,-7.4069,-7.398,-7.3971,-7.4138,-7.4157,-7.4177,-7.4413,-7.4223,-7.4234,-7.4241,-7.4756,-7.4764,-7.4771,0,0,0,0,0,0,-7.3634,-7.3668,-7.3948,-7.3817,-7.3851,-7.3893,-7.3974,-7.3977,-7.4026,-7.4077,-7.4083,-7.4023,-7.4134,-7.4159,-7.4321,-7.4417,-7.424,-7.4251,-7.4748,-7.4758,-7.4768,-7.4886,0,0,0,0,0,0,-7.3623,-7.3665,-7.3741,-7.3819,-7.3859,-7.4091,-7.398,-7.3985,-7.4048,-7.4038,-7.4119,-7.4127,-7.4131,-7.4303,-7.4333,-7.4431,-7.4261,-7.474,-7.4753,-7.4764,-7.4874,-7.4899,-7.492,0,0,0,0,0,-7.3609,-7.3767,-7.3746,-7.378,-7.3955,-7.4097,-7.4119,-7.4122,-7.4056,-7.4132,-7.4165,-7.4124,-7.4402,-7.432,-7.4354,-7.4457,-7.4734,-7.4749,-7.4764,-7.4863,-7.4894,-7.492,0,0,0,0,0,0,-7.3697,-7.3777,-7.3754,-7.3942,-7.4013,-7.4085,-7.4181,-7.4155,-7.4245,-7.4232,-7.423,-7.4249,-7.4416,-7.4452,-7.436,-7.4651,-7.4557,-7.458,-7.4622,-7.4651,-7.4674,-7.4662,-7.4271,0,0,0,0,0,-7.3739,-7.3849,-7.3912,-7.4071,-7.4108,-7.4139,-7.4201,-7.4197,-7.427,-7.43,-7.4345,-7.4416,-7.4519,-7.4587,-7.4685,-7.4878,-7.4895,-7.4966,-7.4989,-7.5008,-7.5027,-7.5132,-7.5165,-7.4821,-7.482,-7.482,0,0,-7.3825,-7.3882,-7.3951,-7.409,-7.4145,-7.4258,-7.4165,-7.4288,-7.4371,-7.4318,-7.4474,-7.451,-7.4589,-7.4768,-7.4848,-7.4803,-7.5126,-7.5027,-7.5042,-7.5051,-7.5151,-7.5184,-7.5213,-7.4831,-7.4829,-7.4827,0,0,-7.404,-7.4094,-7.4234,-7.4291,-7.4376,-7.4395,-7.4429,-7.4505,-7.4527,-7.4684,-7.4647,-7.4745,-7.4923,-7.4981,-7.5034,-7.5272,-7.5238,-7.5304,-7.5426,-7.5528,-7.5555,-7.5579,-7.5664,-7.5695,-7.5323,-7.5323,-7.5323,0,-7.4136,-7.4306,-7.4308,-7.4435,-7.4497,-7.4456,-7.4596,-7.4651,-7.4763,-7.4806,-7.4754,-7.4977,-7.5027,-7.5219,-7.5278,-7.5322,-7.5359,-7.5295,-7.5552,-7.5576,-7.5598,-7.5679,-7.5711,-7.5331,-7.533,-7.5329,-7.5328,0,-7.442,-7.4539,-7.464,-7.4752,-7.4825,-7.4958,-7.4979,-7.5053,-7.5043,-7.5067,-7.5228,-7.5287,-7.5396,-7.5441,-7.5432,-7.5632,-7.5601,-7.5551,-7.5456,-7.5638,-7.5714,-7.5745,-7.5342,-7.5339,-7.5337,-7.5335,0,0,-7.4695,-7.4807,-7.4844,-7.4894,-7.4985,-7.5076,-7.5207,-7.5316,-7.5379,-7.5457,-7.5566,-7.5718,-7.5672,-7.5733,-7.5729,-7.5819,-7.6004,-7.5757,-7.5759,-7.5801,-7.6228,-7.6266,-7.6302,-7.5982,-7.5988,-7.5992,-7.6222,0,-7.4917,-7.5148,-7.5154,-7.5365,-7.5474,-7.5437,-7.5551,-7.5618,-7.5645,-7.574,-7.5768,-7.5876,-7.5807,-7.5843,-7.5931,-7.5963,-7.609,-7.5947,-7.6082,-7.6087,-7.6064,-7.6342,-7.6382,-7.6596,-7.6251,-7.6256,-7.626,0,-7.5207,-7.5297,-7.552,-7.5596,-7.5642,-7.5744,-7.5845,-7.5937,-7.6012,-7.6025,-7.6093,-7.6077,-7.6208,-7.611,-7.6291,-7.6194,-7.6249,-7.6274,-7.6282,-7.6295,-7.6185,-7.6362,-7.6664,-7.6696,-7.6307,-7.6303,-7.63,0,-7.5385,-7.5562,-7.5718,-7.5763,-7.5855,-7.5928,-7.5969,-7.6039,-7.6104,-7.6191,-7.6233,-7.6334,-7.6389,-7.6467,-7.6477,-7.6405,-7.666,-7.6562,-7.6673,-7.6673,-7.6728,-7.6725,-7.7043,-7.6764,-7.6764,-7.6763,-7.6762,0,-7.5633,-7.5771,-7.58,-7.5896,-7.6049,-7.6054,-7.6205,-7.624,-7.6302,-7.6404,-7.6377,-7.6472,-7.648,-7.6578,-7.6587,-7.6736,-7.676,-7.6774,-7.6774,-7.6777,-7.6775,-7.6813,-7.6798,-7.6772,-7.677,-7.6768,-7.6767,0,-7.5858,-7.5883,-7.6051,-7.6126,-7.6148,-7.6257,-7.632,-7.6411,-7.6435,-7.6564,-7.6594,-7.6631,-7.6745,-7.6763,-7.6896,-7.6902,-7.708,-7.7065,-7.7056,-7.7054,-7.7164,-7.7153,-7.7518,-7.7566,-7.7255,-7.7258,-7.7261,0,-7.6015,-7.612,-7.6206,-7.6273,-7.6319,-7.6427,-7.6494,-7.6502,-7.6573,-7.6667,-7.6747,-7.6858,-7.6948,-7.7131,-7.7169,-7.727,-7.7258,-7.7378,-7.7272,-7.7271,-7.7259,-7.7253,-7.7264,-7.7399,-7.7402,-7.7405,-7.7407,0,-7.629,-7.6297,-7.6396,-7.65,-7.6581,-7.6662,-7.6739,-7.6795,-7.6813,-7.6893,-7.701,-7.708,-7.7217,-7.7327,-7.7428,-7.7469,-7.7442,-7.744,-7.7471,-7.7474,-7.7465,-7.7472,-7.7111,-7.7432,-7.7429,-7.7427,-7.7426,-7.7425,-7.6486,-7.6578,-7.6653,-7.6764,-7.6823,-7.6896,-7.6986,-7.7021,-7.712,-7.7233,-7.7231,-7.736,-7.7432,-7.7565,-7.7613,-7.7712,-7.7673,-7.7718,-7.7729,-7.774,-7.7751,-7.7449,-7.773,-7.773,-7.7729,-7.7728,-7.7728,0,-7.676,-7.6807,-7.6909,-7.7018,-7.7105,-7.7073,-7.7156,-7.7231,-7.7345,-7.7415,-7.7505,-7.7639,-7.7746,-7.7793,-7.7898,-7.7969,-7.7959,-7.7996,-7.7991,-7.8001,-7.778,-7.7743,-7.8002,-7.8002,-7.8002,-7.8002,-7.8002,-7.8002,-7.6912,-7.7067,-7.7084,-7.7267,-7.7312,-7.7439,-7.749,-7.7556,-7.7613,-7.7765,-7.7855,-7.7885,-7.7946,-7.8055,-7.8152,-7.8162,-7.8202,-7.8245,-7.825,-7.8044,-7.8016,-7.7989,-7.7954,-7.8254,-7.8254,-7.8462,-7.8464,-7.8466]}]]